User: anonymous   Login
Location: Pasadena-CA
(34.1440°N, 118.1100°W)
Time: 17:25:14
(UTC-07:00)
Language:

UKube-1 - Orbit

View from above orbital plane
View from above orbital plane
View from above satellite
View from above satellite

Ground track
Ground track

The orbit data is extracted from the following two-line orbital elements,

1 40074U 14037F   22178.59050393  .00001607  00000-0  19337-3 0  9994
2 40074  98.3811  59.7901 0003067 266.0801  94.0067 14.85436555431579
Epoch (UTC): 27 June 2022 14:10:19
Eccentricity: 0.0003067
inclination: 98.3811°
perigee height: 610 km
apogee height: 614 km
right ascension of ascending node: 59.7901°
argument of perigee: 266.0801°
revolutions per day: 14.85436555
mean anomaly at epoch: 94.0067°
orbit number at epoch: 43157

The dashed part of the orbit path shows where the satellite is in the earth's shadow,  

DLR